Regional Weather Roundup
Issued by NWS

Home | Current Version | Previous Version | Graphics & Text | Print | Product List | Glossary On
Versions: 1 2 3 4 5 6 7 8 9 10 11 12 13 14 15 16 17 18 19 20 21 22 23 24 25 26 27 28 29 30 31 32 33 34 35 36 37 38 39 40 41 42 43 44 45 46 47
000
ASUS45 KBOU 180307
RWRCO

WEATHER ROUNDUP FOR COLORADO
NATIONAL WEATHER SERVICE DENVER/BOULDER CO
900 PM MDT WED SEP 17 2014

NOTE: "FAIR" INDICATES FEW OR NO CLOUDS BELOW 12000 FEET WITH NO
SIGNIFICANT WEATHER AND/OR OBSTRUCTIONS TO VISIBILITY.

COZ001>005-013-030-031-180400-
...NORTHWEST COLORADO...

CITY           SKY/WX    TMP DP  RH WIND       PRES   REMARKS
CRAIG          CLEAR     53  43  68 CALM      30.12R
HAYDEN         CLEAR     63  34  34 CALM      30.14R
MEEKER         CLEAR     63  40  42 CALM      30.13R
MOUNT WERNER   NOT AVBL
STEAMBOAT SPGS CLEAR     66  39  37 SE3       30.17R
WALDEN         CLEAR     50  37  62 E3        30.28R
$$

COZ006>008-011-180400-
...WEST CENTRAL VALLEYS...

CITY           SKY/WX    TMP DP  RH WIND       PRES   REMARKS
GRAND JUNCTION CLEAR     72  37  28 N9        29.97R
MONTROSE       PTCLDY    70  43  37 SE10      30.08R
EAGLE          CLEAR     64  39  39 E6        30.16R
RIFLE          CLEAR     65  42  43 S9        30.04R
DELTA          PTCLDY    76  37  24 SE3       30.02R
NUCLA          PTCLDY    64  48  55 NE7       30.16R
$$

COZ017>023-064>068-180400-
...SOUTHWEST COLORADO...

CITY           SKY/WX    TMP DP  RH WIND       PRES   REMARKS
DURANGO        MOCLDY    56  52  86 E5        30.21R
CORTEZ         CLEAR     56  53  90 S3        30.15R
PAGOSA SPRINGS MOCLDY    56  46  68 CALM      30.28R
TELLURIDE      NOT AVBL
WOLF CREEK PAS CLOUDY    45  34  65 CALM      30.54R
$$

COZ009-010-012-014-032>034-037-058>063-180400-
...CENTRAL COLORADO...

CITY           SKY/WX    TMP DP  RH WIND       PRES   REMARKS
ASPEN          PTCLDY    59  37  44 SW10      30.22R
BUENA VISTA    MOCLDY    64  37  36 S3        30.27R
COPPER MTN     PTCLDY    54  23  30 SE6       30.56S
BERTHOUD PASS  FAIR      41  39  93 E23       30.61S
COTTONWOOD PAS MOCLDY    63  30  29 S5        30.41R
GUNNISON       MOCLDY    66  37  34 NW6       30.24R
KREMMLING      CLEAR     61  32  33 SE5       30.24R
LEADVILLE      PTCLDY    55  30  38 SE6       30.39R
MONARCH PASS   MOCLDY    46  32  57 E18G26    30.65R
SALIDA         MOCLDY    67  37  32 CALM      30.31R
SUNLIGHT       CLEAR     59  34  38 NW3       30.48R
WILKERSON PASS NOT AVBL
$$

COZ069>075-180400-
...SAN LUIS VALLEY/SANGRE DE CRISTO MOUNTAINS...

CITY           SKY/WX    TMP DP  RH WIND       PRES   REMARKS
ALAMOSA        CLOUDY    61  42  49 W3        30.22R
LA VETA PASS   NOT AVBL
SAGUACHE       PTCLDY    61  36  39 N10       30.25R
$$

COZ035-036-038>040-180400-
...NORTHERN COLORADO FRONT RANGE...

CITY           SKY/WX    TMP DP  RH WIND       PRES   REMARKS
DENVER INTL AP MOCLDY    67  41  38 S7        30.09R
DMNS CITY PARK   N/A     65  49  55 S2        30.08S
AURORA         MOCLDY    70  42  36 SE3       30.11R
FRONT RANGE AP MOCLDY    72  45  37 CALM      30.09S
ERIE MUNI ARPT PTCLDY    67  42  39 S3        30.07R
BOULDER MUN AP PTCLDY    70  41  35 SW10      30.07S
CENTENNIAL     MOCLDY    71  41  33 W6        30.12R
BROOMFIELD     MOCLDY    66  41  39 W7        30.12R
FORT COLLINS   CLEAR     66  48  52 CALM      30.05S
LONGMONT       CLEAR     67  46  47 W7        30.08R
$$

COZ041-046-047-076>085-087-088-180400-
...PIKES PEAK/PALMER DIVIDE AND SOUTHERN FOOTHILLS...

CITY           SKY/WX    TMP DP  RH WIND       PRES   REMARKS
COLO. SPRINGS  PTCLDY    65  39  38 N7        30.13R
A. F. ACADEMY  MOCLDY    61  40  45 N23G29    30.17R
ELLICOTT       NOT AVBL
FALCON         PTCLDY    59  44  58 N3        30.18S
FORT CARSON    CLEAR     64  41  44 NW10      30.09R
LIMON          PTCLDY    64  41  42 E13       30.07R
MONUMENT HILL  PTCLDY    63  39  42 NW6       30.20R
TRINIDAD       PTCLDY    65  43  44 W8        30.09R
$$

COZ042>045-048>051-090-091-180400-
...NORTHEAST COLORADO...

CITY           SKY/WX    TMP DP  RH WIND       PRES   REMARKS
GREELEY ARPT   PTCLDY    63  45  51 NW6       30.03R
AKRON          PTCLDY    72  40  31 S3        30.01R
BURLINGTON     MOCLDY    69  51  52 S6        29.98S
WRAY           PTCLDY    70  59  68 E8        29.95R
STERLING       PTCLDY    64  52  63 CALM      29.96S
HOLYOKE        PTCLDY    68  59  73 S5        29.98R
FORT MORGAN    PTCLDY    65  45  48 N5        30.00S
$$

COZ086-089-092>099-180400-
...SOUTHEAST COLORADO...

CITY           SKY/WX    TMP DP  RH WIND       PRES   REMARKS
PUEBLO         CLEAR     73  35  25 E6        29.99R
LA JUNTA       PTCLDY    75  42  30 S8        29.96R
LAMAR          PTCLDY    72  52  49 S10       29.92R
SPRINGFIELD      N/A     63  57  81 SW6       30.00R
$$


USA.gov is the U.S. government's official web portal to all federal, state and local government web resources and services.